Overview Statistics Trail Chart Weather Telemetry Raw packets
 

This is the latest recevied weather packets stored in our database for station/object PU5FJO-13. If no packets are shown the sender has not sent any weather packets the latest 10 day(s).

<< 19 20 21 22 23 24 25 >>
Time Temp. Humidity Pressure Rain* Wind** Luminosity Snow
1777523168 18.89° C 79% 1016.8 hPa - - - -
1777522568 18.89° C 78% 1016.8 hPa - - - -
1777521968 19.44° C 78% 1016.7 hPa - - - -
1777521368 19.44° C 78% 1016.8 hPa - - - -
1777520768 19.44° C 77% 1016.6 hPa - - - -
1777520168 20° C 76% 1016.6 hPa - - - -
1777519568 19.44° C 78% 1016.5 hPa - - - -
1777518968 18.89° C 80% 1016.4 hPa - - - -
1777518368 19.44° C 79% 1016.5 hPa - - - -
1777517768 19.44° C 79% 1016.6 hPa - - - -
1777517168 19.44° C 80% 1016.7 hPa - - - -
1777516568 20° C 77% 1016.7 hPa - - - -
1777515968 18.33° C 82% 1016.8 hPa - - - -
1777515368 18.89° C 80% 1016.8 hPa - - - -
1777514769 18.89° C 78% 1016.9 hPa - - - -
1777514169 18.89° C 77% 1016.8 hPa - - - -
1777513568 18.89° C 79% 1016.7 hPa - - - -
1777512968 18.33° C 80% 1016.8 hPa - - - -
1777512368 18.89° C 78% 1016.9 hPa - - - -
1777511768 18.89° C 77% 1016.8 hPa - - - -
1777511168 18.89° C 78% 1016.8 hPa - - - -
1777510568 18.89° C 78% 1016.8 hPa - - - -
1777509968 18.89° C 78% 1016.4 hPa - - - -
1777509368 18.89° C 77% 1016.3 hPa - - - -
1777508768 18.89° C 78% 1016.2 hPa - - - -

* Rain since midnight (hover to see other rain measurements)
** Current wind speed in m/s (hover to see current wind gust speed)